• In Hungary
  • List of Countries
  • For 7 days
  • Water Temperature
  • Satellite Maps
  • Weather Map
  • News
  • Weather Widgets
  • user-avatar
    Login

    Hourly Weather Vytropovschina

    Today, 23 February, Friday

    Time Temperature Precipitation Wind Pressure Humidity
    00:00 -18°C° 0 mm 2 mps 750 mmHg 95%
    01:00 -18°C° 0 mm 2 mps 750 mmHg 95%
    02:00 -19°C° 0 mm 2 mps 750 mmHg 96%
    03:00 -19°C° 0 mm 2 mps 750 mmHg 96%
    04:00 -19°C° 0 mm 2 mps 750 mmHg 96%
    05:00 -20°C° 0 mm 2 mps 750 mmHg 96%
    06:00 -20°C° 0 mm 2 mps 750 mmHg 95%
    07:00 -20°C° 0 mm 2 mps 749 mmHg 95%
    08:00 -20°C° 0 mm 2 mps 749 mmHg 95%
    09:00 -18°C° 0 mm 2 mps 749 mmHg 92%
    10:00 -17°C° 0 mm 2 mps 749 mmHg 89%
    11:00 -15°C° 0 mm 2 mps 749 mmHg 86%
    12:00 -14°C° 0 mm 2 mps 749 mmHg 85%
    13:00 -13°C° 0 mm 2 mps 749 mmHg 83%
    14:00 -12°C° 0 mm 2 mps 749 mmHg 82%
    15:00 -13°C° 0 mm 2 mps 748 mmHg 84%
    16:00 -12°C° 0 mm 1 mps 748 mmHg 87%
    17:00 -12°C° 0 mm 1 mps 748 mmHg 89%
    18:00 -13°C° 0 mm 1 mps 748 mmHg 91%
    19:00 -16°C° 0 mm 2 mps 748 mmHg 92%
    20:00 -18°C° 0 mm 2 mps 748 mmHg 94%
    21:00 -18°C° 0 mm 2 mps 748 mmHg 95%
    22:00 -19°C° 0 mm 2 mps 748 mmHg 95%
    23:00 -19°C° 0 mm 2 mps 748 mmHg 96%

    Tomorrow, 24 February, Saturday

    Time Temperature Precipitation Wind Pressure Humidity
    00:00 -19°C° 0 mm 2 mps 748 mmHg 96%
    01:00 -22°C° 0 mm 3 mps 748 mmHg 96%
    02:00 -22°C° 0 mm 3 mps 748 mmHg 96%
    03:00 -22°C° 0 mm 3 mps 748 mmHg 96%
    04:00 -22°C° 0 mm 3 mps 748 mmHg 96%
    05:00 -22°C° 0 mm 3 mps 748 mmHg 96%
    06:00 -22°C° 0 mm 3 mps 748 mmHg 96%
    07:00 -23°C° 0 mm 4 mps 749 mmHg 96%
    08:00 -23°C° 0 mm 4 mps 749 mmHg 96%
    09:00 -20°C° 0 mm 4 mps 749 mmHg 93%
    10:00 -19°C° 0 mm 4 mps 750 mmHg 91%
    11:00 -18°C° 0 mm 5 mps 750 mmHg 89%
    12:00 -17°C° 0 mm 5 mps 750 mmHg 87%
    13:00 -17°C° 0 mm 5 mps 750 mmHg 85%
    14:00 -15°C° 0 mm 5 mps 750 mmHg 84%
    15:00 -15°C° 0 mm 5 mps 750 mmHg 85%
    16:00 -15°C° 0 mm 5 mps 750 mmHg 85%
    17:00 -16°C° 0 mm 4 mps 751 mmHg 86%
    18:00 -17°C° 0 mm 4 mps 751 mmHg 88%
    19:00 -18°C° 0 mm 4 mps 751 mmHg 90%
    20:00 -18°C° 0 mm 3 mps 751 mmHg 93%
    21:00 -18°C° 0 mm 3 mps 752 mmHg 94%
    22:00 -19°C° 0 mm 3 mps 752 mmHg 95%
    23:00 -19°C° 0 mm 3 mps 752 mmHg 96%

    Day after tomorrow, 25 February, Sunday

    Time Temperature Precipitation Wind Pressure Humidity
    00:00 -21°C° 0 mm 3 mps 752 mmHg 97%
    01:00 -21°C° 0 mm 3 mps 752 mmHg 97%
    02:00 -22°C° 0 mm 3 mps 752 mmHg 98%
    03:00 -22°C° 0 mm 3 mps 752 mmHg 98%
    04:00 -21°C° 0 mm 2 mps 752 mmHg 98%
    05:00 -21°C° 0 mm 2 mps 752 mmHg 98%
    06:00 -21°C° 0 mm 2 mps 752 mmHg 98%
    07:00 -21°C° 0 mm 2 mps 752 mmHg 98%
    08:00 -21°C° 0 mm 2 mps 752 mmHg 97%
    09:00 -20°C° 0 mm 2 mps 752 mmHg 95%
    10:00 -19°C° 0 mm 2 mps 752 mmHg 94%
    11:00 -18°C° 0 mm 2 mps 752 mmHg 92%
    12:00 -17°C° 0 mm 2 mps 752 mmHg 90%
    13:00 -16°C° 0 mm 2 mps 752 mmHg 88%
    14:00 -16°C° 0 mm 3 mps 752 mmHg 87%
    15:00 -16°C° 0 mm 2 mps 752 mmHg 88%
    16:00 -16°C° 0 mm 2 mps 752 mmHg 90%
    17:00 -16°C° 0 mm 2 mps 752 mmHg 91%
    18:00 -18°C° 0 mm 2 mps 752 mmHg 93%
    19:00 -19°C° 0 mm 2 mps 752 mmHg 95%
    20:00 -20°C° 0 mm 2 mps 752 mmHg 96%
    21:00 -20°C° 0 mm 2 mps 752 mmHg 97%
    22:00 -21°C° 0 mm 2 mps 752 mmHg 97%
    23:00 -21°C° 0 mm 2 mps 752 mmHg 98%

    26 February, Monday

    Time Temperature Precipitation Wind Pressure Humidity
    00:00 -21°C° 0 mm 2 mps 752 mmHg 98%
    01:00 -23°C° 0 mm 2 mps 752 mmHg 98%
    02:00 -23°C° 0 mm 2 mps 752 mmHg 98%
    03:00 -23°C° 0 mm 2 mps 752 mmHg 98%
    04:00 -24°C° 0 mm 2 mps 751 mmHg 98%
    05:00 -24°C° 0 mm 2 mps 751 mmHg 98%
    06:00 -24°C° 0 mm 2 mps 751 mmHg 98%
    07:00 -24°C° 0 mm 2 mps 751 mmHg 98%
    08:00 -25°C° 0 mm 2 mps 751 mmHg 98%
    09:00 -23°C° 0 mm 2 mps 751 mmHg 95%
    10:00 -20°C° 0 mm 2 mps 751 mmHg 92%
    11:00 -17°C° 0 mm 1 mps 751 mmHg 89%
    12:00 -16°C° 0 mm 1 mps 751 mmHg 87%
    13:00 -15°C° 0 mm 1 mps 750 mmHg 84%
    14:00 -14°C° 0 mm 1 mps 750 mmHg 82%
    15:00 -14°C° 0 mm 1 mps 750 mmHg 85%
    16:00 -15°C° 0 mm 1 mps 750 mmHg 87%
    17:00 -15°C° 0 mm 1 mps 750 mmHg 89%
    18:00 -16°C° 0 mm 1 mps 750 mmHg 91%
    19:00 -17°C° 0 mm 1 mps 750 mmHg 94%
    20:00 -19°C° 0 mm 0 mps 750 mmHg 96%
    21:00 -19°C° 0 mm 0 mps 750 mmHg 96%
    22:00 -19°C° 0 mm 0 mps 749 mmHg 97%
    23:00 -20°C° 0 mm 0 mps 749 mmHg 98%

    27 February, Tuesday

    Time Temperature Precipitation Wind Pressure Humidity
    00:00 -20°C° 0 mm 0 mps 749 mmHg 98%
    01:00 -21°C° 0 mm 0 mps 749 mmHg 98%
    02:00 -21°C° 0 mm 0 mps 749 mmHg 98%
    03:00 -21°C° 0 mm 0 mps 749 mmHg 98%
    04:00 -21°C° 0 mm 0 mps 749 mmHg 98%
    05:00 -22°C° 0 mm 1 mps 749 mmHg 98%
    06:00 -22°C° 0 mm 1 mps 749 mmHg 98%
    07:00 -21°C° 0 mm 1 mps 749 mmHg 97%
    08:00 -21°C° 0 mm 1 mps 749 mmHg 97%
    09:00 -23°C° 0 mm 2 mps 750 mmHg 94%
    10:00 -20°C° 0 mm 2 mps 750 mmHg 92%
    11:00 -19°C° 0 mm 2 mps 750 mmHg 89%
    12:00 -18°C° 0 mm 2 mps 750 mmHg 88%
    13:00 -18°C° 0 mm 3 mps 750 mmHg 86%
    14:00 -17°C° 0 mm 3 mps 750 mmHg 84%
    15:00 -18°C° 0 mm 3 mps 750 mmHg 86%
    16:00 -18°C° 0 mm 3 mps 750 mmHg 87%
    17:00 -18°C° 0 mm 3 mps 750 mmHg 89%
    18:00 -19°C° 0 mm 3 mps 750 mmHg 90%
    19:00 -21°C° 0 mm 3 mps 751 mmHg 92%
    20:00 -21°C° 0 mm 3 mps 751 mmHg 93%
    21:00 -22°C° 0 mm 4 mps 751 mmHg 93%
    22:00 -22°C° 0 mm 4 mps 751 mmHg 93%
    23:00 -22°C° 0 mm 4 mps 751 mmHg 92%

    28 February, Wednesday

    Time Temperature Precipitation Wind Pressure Humidity
    00:00 -22°C° 0 mm 4 mps 751 mmHg 92%
    01:00 -22°C° 0 mm 4 mps 751 mmHg 92%
    02:00 -22°C° 0 mm 4 mps 750 mmHg 91%
    03:00 -22°C° 0 mm 5 mps 750 mmHg 91%
    04:00 -21°C° 0 mm 5 mps 750 mmHg 90%
    05:00 -21°C° 0 mm 5 mps 749 mmHg 89%
    06:00 -22°C° 0.2 mm 6 mps 749 mmHg 90%
    07:00 -22°C° 0.2 mm 6 mps 749 mmHg 91%
    08:00 -21°C° 0.2 mm 7 mps 748 mmHg 92%
    09:00 -21°C° 0.4 mm 7 mps 748 mmHg 91%
    10:00 -20°C° 0.4 mm 7 mps 747 mmHg 91%
    11:00 -20°C° 0.4 mm 7 mps 747 mmHg 90%
    12:00 -19°C° 0.4 mm 7 mps 746 mmHg 90%
    13:00 -19°C° 0.4 mm 7 mps 745 mmHg 91%
    14:00 -18°C° 0.4 mm 7 mps 744 mmHg 91%
    15:00 -18°C° 0.4 mm 7 mps 744 mmHg 91%
    16:00 -17°C° 0.4 mm 6 mps 743 mmHg 90%
    17:00 -17°C° 0.4 mm 6 mps 743 mmHg 90%
    18:00 -17°C° 0.2 mm 5 mps 743 mmHg 91%
    19:00 -17°C° 0.2 mm 5 mps 742 mmHg 91%
    20:00 -16°C° 0.2 mm 4 mps 742 mmHg 91%
    21:00 -16°C° 0.2 mm 4 mps 742 mmHg 92%
    22:00 -16°C° 0.2 mm 4 mps 741 mmHg 92%
    23:00 -16°C° 0.2 mm 4 mps 741 mmHg 93%
    Show more